RYR54NN LERS-EGNM

Flight info

Callsign RYR54NN
Flight time 2h 3m
Altitude 36000
Route NATPI DCT EVNAM DCT TUPAR UN861 ANG DCT AKIKI UN867 AVANT UM184 HEMEL T420 TNT N57 DENBY DCT LBA
Aircraft B38M/M-SDE1FGHILORVWXY/HB1

Departure

Time 2026-04-21 16:47
Airport Reus Airport (LERS)

Arrival

Time 2026-04-21 18:50
Airport Leeds Bradford Airport (EGNM)
Time Latitude Longitude Altitude Speed Heading
2026-04-21 16:19 41.14645 1.15494 241 ft 0 kts 337°
2026-04-21 16:33 41.14616 1.15510 241 ft 10 kts 338°
2026-04-21 16:33 41.14584 1.15527 241 ft 1 kts 320°
2026-04-21 16:33 41.14575 1.15541 241 ft 0 kts 287°
2026-04-21 16:34 41.14574 1.15552 241 ft 3 kts 248°
2026-04-21 16:34 41.14584 1.15578 241 ft 0 kts 248°
2026-04-21 16:37 41.14583 1.15576 241 ft 1 kts 248°
2026-04-21 16:38 41.14576 1.15560 241 ft 2 kts 218°
2026-04-21 16:38 41.14556 1.15554 241 ft 4 kts 178°
2026-04-21 16:38 41.14527 1.15567 241 ft 6 kts 160°
2026-04-21 16:38 41.14509 1.15575 242 ft 0 kts 160°
2026-04-21 16:39 41.14507 1.15576 242 ft 1 kts 160°
2026-04-21 16:39 41.14492 1.15583 242 ft 3 kts 160°
2026-04-21 16:39 41.14453 1.15603 242 ft 9 kts 151°
2026-04-21 16:39 41.14447 1.15714 241 ft 17 kts 70°
2026-04-21 16:40 41.14490 1.15865 240 ft 17 kts 62°
2026-04-21 16:40 41.14570 1.15883 241 ft 13 kts 346°
2026-04-21 16:40 41.14657 1.15873 241 ft 13 kts 27°
2026-04-21 16:40 41.14701 1.15984 242 ft 15 kts 70°
2026-04-21 16:41 41.14727 1.16075 242 ft 16 kts 70°
2026-04-21 16:41 41.14787 1.16276 242 ft 19 kts 69°
2026-04-21 16:41 41.14836 1.16445 242 ft 21 kts 69°
2026-04-21 16:41 41.14890 1.16630 242 ft 22 kts 69°
2026-04-21 16:42 41.14947 1.16830 243 ft 24 kts 69°
2026-04-21 16:42 41.15011 1.17046 243 ft 26 kts 69°
2026-04-21 16:42 41.15078 1.17274 243 ft 27 kts 68°
2026-04-21 16:42 41.15150 1.17516 243 ft 29 kts 68°
2026-04-21 16:43 41.15225 1.17767 244 ft 30 kts 69°
2026-04-21 16:43 41.15274 1.17946 244 ft 16 kts 70°
2026-04-21 16:43 41.15315 1.18089 244 ft 13 kts 69°
2026-04-21 16:43 41.15343 1.18188 244 ft 12 kts 76°
2026-04-21 16:44 41.15312 1.18244 244 ft 6 kts 159°
2026-04-21 16:44 41.15300 1.18250 245 ft 0 kts 159°
2026-04-21 16:44 41.15298 1.18251 245 ft 1 kts 160°
2026-04-21 16:44 41.15282 1.18259 245 ft 4 kts 160°
2026-04-21 16:45 41.15252 1.18273 245 ft 5 kts 160°
2026-04-21 16:45 41.15213 1.18287 246 ft 6 kts 188°
2026-04-21 16:45 41.15189 1.18254 246 ft 0 kts 252°
2026-04-21 16:46 41.15186 1.18246 246 ft 3 kts 250°
2026-04-21 16:46 41.15121 1.18016 246 ft 64 kts 249°
2026-04-21 16:46 41.14873 1.17173 242 ft 132 kts 249°
2026-04-21 16:46 41.14479 1.15830 431 ft 168 kts 248°
2026-04-21 16:47 41.14004 1.14363 1102 ft 176 kts 239°
2026-04-21 16:47 41.13362 1.12998 1957 ft 172 kts 236°
2026-04-21 16:47 41.12683 1.11593 2482 ft 192 kts 236°
2026-04-21 16:47 41.11916 1.09963 2927 ft 222 kts 237°
2026-04-21 16:48 41.11082 1.08151 3506 ft 242 kts 238°
2026-04-21 16:48 41.10173 1.06162 4238 ft 258 kts 238°
2026-04-21 16:48 41.09231 1.04087 5198 ft 262 kts 239°
2026-04-21 16:48 41.08294 1.02008 6152 ft 267 kts 239°
2026-04-21 16:49 41.07334 0.99868 7054 ft 270 kts 239°
2026-04-21 16:49 41.06371 0.97727 7964 ft 274 kts 239°
2026-04-21 16:49 41.05391 0.95548 8881 ft 277 kts 239°
2026-04-21 16:49 41.04412 0.93372 9774 ft 280 kts 239°
2026-04-21 16:50 41.03463 0.91050 10454 ft 291 kts 250°
2026-04-21 16:50 41.03226 0.88357 10857 ft 310 kts 278°
2026-04-21 16:50 41.04044 0.85616 11246 ft 331 kts 302°
2026-04-21 16:50 41.05665 0.83316 11700 ft 349 kts 322°
2026-04-21 16:51 41.07875 0.81949 12334 ft 360 kts 346°
2026-04-21 16:51 41.10401 0.81892 13194 ft 368 kts
2026-04-21 16:51 41.12893 0.82673 13886 ft 374 kts 10°
2026-04-21 16:51 41.15466 0.83284 14631 ft 376 kts
2026-04-21 16:52 41.18073 0.83896 15360 ft 379 kts
2026-04-21 16:52 41.20660 0.84521 16064 ft 382 kts
2026-04-21 16:52 41.22402 0.84950 16523 ft 384 kts
2026-04-21 16:52 41.25919 0.85825 17455 ft 388 kts
2026-04-21 16:53 41.28606 0.86497 18108 ft 392 kts
2026-04-21 16:53 41.31273 0.87166 18699 ft 394 kts
2026-04-21 16:53 41.33988 0.87848 19266 ft 397 kts
2026-04-21 16:53 41.36697 0.88531 19811 ft 400 kts
2026-04-21 16:54 41.39451 0.89223 20345 ft 404 kts
2026-04-21 16:54 41.42198 0.89917 20892 ft 407 kts
2026-04-21 16:54 41.45013 0.90628 21421 ft 410 kts
2026-04-21 16:54 41.47792 0.91331 21948 ft 413 kts
2026-04-21 16:55 41.49677 0.91808 22296 ft 416 kts
2026-04-21 16:55 41.53484 0.92772 23002 ft 420 kts
2026-04-21 16:55 41.55412 0.93262 23360 ft 422 kts
2026-04-21 16:55 41.58319 0.93999 23818 ft 426 kts
2026-04-21 16:56 41.61262 0.94746 24283 ft 429 kts
2026-04-21 16:56 41.64187 0.95491 24733 ft 432 kts
2026-04-21 16:56 41.67167 0.96251 25192 ft 434 kts
2026-04-21 16:56 41.70111 0.97003 25634 ft 437 kts
2026-04-21 16:57 41.73123 0.97771 26061 ft 440 kts
2026-04-21 16:57 41.76116 0.98536 26476 ft 443 kts
2026-04-21 16:57 41.79155 0.99314 26889 ft 446 kts
2026-04-21 16:57 41.82212 1.00097 27304 ft 449 kts
2026-04-21 16:58 41.85306 1.00890 27717 ft 452 kts
2026-04-21 16:58 41.88382 1.01680 28118 ft 454 kts
2026-04-21 16:58 41.91506 1.02483 28490 ft 458 kts
2026-04-21 16:58 41.94601 1.03280 28886 ft 460 kts
2026-04-21 16:59 41.97742 1.04089 29269 ft 463 kts
2026-04-21 16:59 42.00924 1.04909 29618 ft 466 kts
2026-04-21 16:59 42.04068 1.05720 29974 ft 469 kts
2026-04-21 16:59 42.07264 1.06548 30407 ft 468 kts
2026-04-21 17:00 42.10436 1.07374 30863 ft 467 kts
2026-04-21 17:00 42.13645 1.08208 31325 ft 467 kts
2026-04-21 17:00 42.15778 1.08764 31638 ft 466 kts
2026-04-21 17:00 42.20014 1.09866 32200 ft 465 kts
2026-04-21 17:01 42.23199 1.10696 32715 ft 464 kts
2026-04-21 17:01 42.26332 1.11513 33175 ft 463 kts
2026-04-21 17:01 42.29505 1.12341 33619 ft 462 kts
2026-04-21 17:01 42.32641 1.13160 34010 ft 461 kts
2026-04-21 17:02 42.35805 1.13985 34361 ft 461 kts
2026-04-21 17:02 42.38938 1.14803 34712 ft 461 kts
2026-04-21 17:02 42.42106 1.15631 35062 ft 460 kts
2026-04-21 17:02 42.45249 1.16454 35412 ft 460 kts
2026-04-21 17:03 42.48354 1.17267 35723 ft 460 kts
2026-04-21 17:03 42.51525 1.18097 35959 ft 461 kts
2026-04-21 17:03 42.54660 1.18919 35975 ft 464 kts
2026-04-21 17:04 42.61011 1.20586 35929 ft 463 kts
2026-04-21 17:04 42.67355 1.22254 35916 ft 465 kts
2026-04-21 17:05 42.73719 1.23617 35891 ft 460 kts 357°
2026-04-21 17:05 42.76848 1.23163 35935 ft 450 kts 343°
2026-04-21 17:05 42.79899 1.22266 35889 ft 452 kts 345°
2026-04-21 17:06 42.86227 1.21697 35921 ft 458 kts 355°
2026-04-21 17:06 42.92518 1.20897 35880 ft 452 kts 346°
2026-04-21 17:07 42.98769 1.19913 35864 ft 455 kts 351°
2026-04-21 17:07 43.05071 1.19083 35848 ft 455 kts 350°
2026-04-21 17:08 43.11388 1.18213 35835 ft 454 kts 350°
2026-04-21 17:08 43.17672 1.17342 35833 ft 454 kts 350°
2026-04-21 17:09 43.27077 1.16035 35819 ft 454 kts 349°
2026-04-21 17:09 43.33368 1.15158 35821 ft 455 kts 349°
2026-04-21 17:10 43.39657 1.14279 35825 ft 455 kts 349°
2026-04-21 17:10 43.45966 1.13397 35824 ft 455 kts 349°
2026-04-21 17:11 43.52253 1.12515 35825 ft 455 kts 349°
2026-04-21 17:11 43.58572 1.11622 35829 ft 454 kts 348°
2026-04-21 17:12 43.64436 1.09073 35852 ft 437 kts 325°
2026-04-21 17:12 43.69826 1.05114 35815 ft 444 kts 335°
2026-04-21 17:13 43.75688 1.02408 35817 ft 443 kts 333°
2026-04-21 17:13 43.81280 0.98926 35820 ft 442 kts 332°
2026-04-21 17:14 43.86929 0.95489 35819 ft 442 kts 332°
2026-04-21 17:14 43.92573 0.92089 35823 ft 442 kts 332°
2026-04-21 17:15 43.98164 0.88715 35823 ft 442 kts 332°
2026-04-21 17:15 44.03810 0.85299 35825 ft 441 kts 332°
2026-04-21 17:16 44.09456 0.81877 35833 ft 441 kts 332°
2026-04-21 17:16 44.15076 0.78464 35829 ft 441 kts 332°
2026-04-21 17:17 44.20693 0.75045 35829 ft 441 kts 332°
2026-04-21 17:17 44.26309 0.71620 35831 ft 441 kts 332°
2026-04-21 17:18 44.31927 0.68186 35829 ft 441 kts 332°
2026-04-21 17:18 44.37538 0.64749 35828 ft 441 kts 332°
2026-04-21 17:19 44.43147 0.61306 35831 ft 440 kts 332°
2026-04-21 17:19 44.48743 0.57865 35833 ft 440 kts 332°
2026-04-21 17:20 44.54369 0.54397 35835 ft 440 kts 332°
2026-04-21 17:20 44.59931 0.50962 35830 ft 439 kts 332°
2026-04-21 17:21 44.65529 0.47497 35831 ft 439 kts 332°
2026-04-21 17:21 44.71129 0.44023 35831 ft 439 kts 332°
2026-04-21 17:22 44.76714 0.40551 35828 ft 439 kts 332°
2026-04-21 17:22 44.82279 0.37085 35832 ft 439 kts 332°
2026-04-21 17:23 44.87859 0.33602 35839 ft 438 kts 332°
2026-04-21 17:23 44.93413 0.30127 35843 ft 438 kts 332°
2026-04-21 17:24 44.99001 0.26624 35839 ft 438 kts 332°
2026-04-21 17:24 45.04562 0.23130 35853 ft 440 kts 332°
2026-04-21 17:25 45.10152 0.19611 35858 ft 440 kts 332°
2026-04-21 17:25 45.15770 0.16066 35859 ft 440 kts 332°
2026-04-21 17:26 45.21339 0.12545 35856 ft 440 kts 332°
2026-04-21 17:26 45.26943 0.08994 35864 ft 440 kts 332°
2026-04-21 17:27 45.32538 0.05440 35866 ft 440 kts 332°
2026-04-21 17:27 45.38134 0.01879 35886 ft 440 kts 332°
2026-04-21 17:28 45.43703 -0.01673 35879 ft 440 kts 332°
2026-04-21 17:28 45.49292 -0.05246 35891 ft 440 kts 332°
2026-04-21 17:29 45.54862 -0.08814 35902 ft 440 kts 332°
2026-04-21 17:29 45.60461 -0.12409 35901 ft 439 kts 332°
2026-04-21 17:30 45.66026 -0.15989 35904 ft 439 kts 332°
2026-04-21 17:30 45.71601 -0.19584 35909 ft 440 kts 332°
2026-04-21 17:31 45.77143 -0.23165 35910 ft 440 kts 332°
2026-04-21 17:31 45.82725 -0.26781 35915 ft 440 kts 332°
2026-04-21 17:32 45.88301 -0.30400 35922 ft 440 kts 332°
2026-04-21 17:32 45.93889 -0.34035 35927 ft 441 kts 332°
2026-04-21 17:33 45.99479 -0.37680 35934 ft 441 kts 331°
2026-04-21 17:33 46.05073 -0.41335 35934 ft 440 kts 331°
2026-04-21 17:34 46.10614 -0.44964 35940 ft 440 kts 331°
2026-04-21 17:34 46.16206 -0.48634 35942 ft 440 kts 331°
2026-04-21 17:35 46.21767 -0.52290 35949 ft 440 kts 331°
2026-04-21 17:35 46.27333 -0.55958 35951 ft 440 kts 331°
2026-04-21 17:36 46.32892 -0.59629 35956 ft 440 kts 331°
2026-04-21 17:36 46.38459 -0.63314 35963 ft 440 kts 331°
2026-04-21 17:37 46.44113 -0.66739 35952 ft 445 kts 340°
2026-04-21 17:37 46.46150 -0.67251 35942 ft 451 kts 353°
2026-04-21 17:37 46.50362 -0.67173 35959 ft 456 kts 356°
2026-04-21 17:38 46.56587 -0.68131 35976 ft 445 kts 341°
2026-04-21 17:38 46.62696 -0.69862 35964 ft 452 kts 352°
2026-04-21 17:39 46.68952 -0.70566 35979 ft 450 kts 348°
2026-04-21 17:39 46.75173 -0.71692 35975 ft 451 kts 348°
2026-04-21 17:40 46.81414 -0.72759 35981 ft 451 kts 348°
2026-04-21 17:40 46.87638 -0.73816 35986 ft 451 kts 348°
2026-04-21 17:41 46.93851 -0.74873 35989 ft 451 kts 348°
2026-04-21 17:41 47.00087 -0.75937 35995 ft 451 kts 348°
2026-04-21 17:42 47.06336 -0.77005 35999 ft 451 kts 348°
2026-04-21 17:42 47.12525 -0.78066 36003 ft 451 kts 348°
2026-04-21 17:43 47.18781 -0.79140 36009 ft 450 kts 348°
2026-04-21 17:43 47.24987 -0.80209 36009 ft 450 kts 348°
2026-04-21 17:44 47.31219 -0.81284 36018 ft 450 kts 348°
2026-04-21 17:44 47.37423 -0.82357 36020 ft 449 kts 348°
2026-04-21 17:45 47.42573 -0.83250 36028 ft 449 kts 348°
2026-04-21 17:45 47.49801 -0.84506 36030 ft 449 kts 348°
2026-04-21 17:46 47.55966 -0.85842 36039 ft 446 kts 344°
2026-04-21 17:46 47.61074 -0.87260 36038 ft 446 kts 345°
2026-04-21 17:47 47.67180 -0.88888 36038 ft 446 kts 345°
2026-04-21 17:47 47.73264 -0.90500 36046 ft 446 kts 345°
2026-04-21 17:48 47.79388 -0.92126 36055 ft 446 kts 345°
2026-04-21 17:48 47.85486 -0.93749 36070 ft 445 kts 345°
2026-04-21 17:49 47.91596 -0.95379 36059 ft 445 kts 345°
2026-04-21 17:49 47.97663 -0.97002 36075 ft 445 kts 345°
2026-04-21 17:50 48.03770 -0.98639 36068 ft 445 kts 345°
2026-04-21 17:50 48.09878 -1.00280 36073 ft 445 kts 345°
2026-04-21 17:51 48.15942 -1.01913 36078 ft 444 kts 345°
2026-04-21 17:51 48.21995 -1.03548 36079 ft 444 kts 345°
2026-04-21 17:52 48.28082 -1.05195 36077 ft 444 kts 345°
2026-04-21 17:52 48.34113 -1.06831 36080 ft 443 kts 345°
2026-04-21 17:53 48.40153 -1.08474 36081 ft 443 kts 345°
2026-04-21 17:53 48.46223 -1.10128 36095 ft 443 kts 345°
2026-04-21 17:54 48.52303 -1.11790 36096 ft 443 kts 345°
2026-04-21 17:54 48.58339 -1.13444 36102 ft 443 kts 345°
2026-04-21 17:55 48.64370 -1.15100 36103 ft 443 kts 345°
2026-04-21 17:55 48.70407 -1.16762 36111 ft 443 kts 345°
2026-04-21 17:56 48.76449 -1.18429 36114 ft 443 kts 345°
2026-04-21 17:56 48.82515 -1.20107 36118 ft 442 kts 345°
2026-04-21 17:57 48.88566 -1.21785 36124 ft 443 kts 345°
2026-04-21 17:57 48.91594 -1.22626 36364 ft 442 kts 345°
2026-04-21 17:57 48.94560 -1.23451 36845 ft 438 kts 346°
2026-04-21 17:58 48.97583 -1.24292 37209 ft 437 kts 346°
2026-04-21 17:58 49.00556 -1.25122 37499 ft 438 kts 346°
2026-04-21 17:58 49.03563 -1.25961 37799 ft 437 kts 346°
2026-04-21 17:58 49.06560 -1.26799 38101 ft 437 kts 346°
2026-04-21 17:59 49.09515 -1.27627 38392 ft 437 kts 346°
2026-04-21 17:59 49.12452 -1.28449 38657 ft 437 kts 346°
2026-04-21 17:59 49.15455 -1.29292 38894 ft 436 kts 347°
2026-04-21 17:59 49.18431 -1.30128 39085 ft 437 kts 347°
2026-04-21 18:00 49.21423 -1.30970 39269 ft 437 kts 347°
2026-04-21 18:00 49.24391 -1.31806 39453 ft 437 kts 347°
2026-04-21 18:00 49.27356 -1.32642 39636 ft 436 kts 347°
2026-04-21 18:00 49.30330 -1.33481 39817 ft 436 kts 347°
2026-04-21 18:01 49.33339 -1.34332 39996 ft 436 kts 347°
2026-04-21 18:01 49.36333 -1.35179 40148 ft 435 kts 347°
2026-04-21 18:01 49.42262 -1.36859 40162 ft 435 kts 347°
2026-04-21 18:02 49.48200 -1.38546 40163 ft 434 kts 347°
2026-04-21 18:02 49.54119 -1.40232 40161 ft 434 kts 347°
2026-04-21 18:03 49.60111 -1.41734 40152 ft 435 kts 353°
2026-04-21 18:03 49.63122 -1.41532 40163 ft 439 kts
2026-04-21 18:03 49.66132 -1.40850 40167 ft 441 kts
2026-04-21 18:04 49.72218 -1.40483 40169 ft 437 kts 357°
2026-04-21 18:04 49.78298 -1.39991 40167 ft 438 kts
2026-04-21 18:05 49.84407 -1.39435 40169 ft 438 kts 360°
2026-04-21 18:05 49.90487 -1.38893 40180 ft 438 kts 360°
2026-04-21 18:06 49.96559 -1.38352 40186 ft 438 kts 360°
2026-04-21 18:06 50.02615 -1.37423 40199 ft 440 kts
2026-04-21 18:07 50.08668 -1.35894 40188 ft 441 kts
2026-04-21 18:07 50.14713 -1.34389 40201 ft 441 kts
2026-04-21 18:08 50.20777 -1.32877 40205 ft 441 kts
2026-04-21 18:08 50.26823 -1.31366 40209 ft 441 kts
2026-04-21 18:09 50.32907 -1.29841 40213 ft 441 kts
2026-04-21 18:09 50.38940 -1.28325 40211 ft 441 kts
2026-04-21 18:10 50.44998 -1.26799 40213 ft 442 kts
2026-04-21 18:10 50.51011 -1.24709 40204 ft 447 kts 22°
2026-04-21 18:11 50.53675 -1.22107 40245 ft 450 kts 34°
2026-04-21 18:11 50.56148 -1.19140 40218 ft 453 kts 33°
2026-04-21 18:11 50.61535 -1.14116 40236 ft 450 kts 24°
2026-04-21 18:12 50.66908 -1.08994 40244 ft 452 kts 30°
2026-04-21 18:12 50.72165 -1.03694 40239 ft 452 kts 29°
2026-04-21 18:13 50.77463 -0.98387 40247 ft 453 kts 29°
2026-04-21 18:13 50.82849 -0.93235 40244 ft 455 kts 22°
2026-04-21 18:14 50.88907 -0.90531 40251 ft 452 kts 11°
2026-04-21 18:14 50.91926 -0.89163 40244 ft 454 kts 18°
2026-04-21 18:15 50.97802 -0.85565 40259 ft 454 kts 14°
2026-04-21 18:15 51.03806 -0.82542 40266 ft 454 kts 15°
2026-04-21 18:16 51.09715 -0.79478 40269 ft 454 kts 15°
2026-04-21 18:16 51.15640 -0.76385 40270 ft 454 kts 15°
2026-04-21 18:17 51.21643 -0.73243 40267 ft 454 kts 15°
2026-04-21 18:17 51.27635 -0.70098 40265 ft 454 kts 15°
2026-04-21 18:18 51.33654 -0.66930 40266 ft 454 kts 15°
2026-04-21 18:18 51.39653 -0.63764 40294 ft 454 kts 16°
2026-04-21 18:19 51.45623 -0.60605 40297 ft 454 kts 16°
2026-04-21 18:19 51.51600 -0.57432 40292 ft 454 kts 16°
2026-04-21 18:20 51.57567 -0.54257 40294 ft 454 kts 16°
2026-04-21 18:20 51.63573 -0.51052 40295 ft 454 kts 16°
2026-04-21 18:21 51.69560 -0.47848 40391 ft 455 kts 16°
2026-04-21 18:21 51.75546 -0.44664 40391 ft 454 kts 14°
2026-04-21 18:21 51.78627 -0.43666 40304 ft 449 kts 359°
2026-04-21 18:22 51.81665 -0.44170 40311 ft 442 kts 342°
2026-04-21 18:22 51.84512 -0.46125 40330 ft 441 kts 329°
2026-04-21 18:22 51.87132 -0.48642 40322 ft 443 kts 329°
2026-04-21 18:23 51.92487 -0.53621 40319 ft 444 kts 329°
2026-04-21 18:23 51.97801 -0.58735 40318 ft 444 kts 328°
2026-04-21 18:24 52.03079 -0.63891 40320 ft 445 kts 328°
2026-04-21 18:24 52.08315 -0.69031 40326 ft 444 kts 328°
2026-04-21 18:25 52.13599 -0.74232 40331 ft 445 kts 328°
2026-04-21 18:25 52.18892 -0.79457 40333 ft 445 kts 328°
2026-04-21 18:26 52.24192 -0.84704 40327 ft 438 kts 328°
2026-04-21 18:26 52.26764 -0.87255 39823 ft 435 kts 328°
2026-04-21 18:26 52.29347 -0.89822 39321 ft 432 kts 328°
2026-04-21 18:26 52.31880 -0.92341 38724 ft 431 kts 327°
2026-04-21 18:27 52.34445 -0.94896 38040 ft 430 kts 327°
2026-04-21 18:27 52.36932 -0.97377 37440 ft 428 kts 327°
2026-04-21 18:27 52.39434 -0.99876 36854 ft 425 kts 327°
2026-04-21 18:27 52.41964 -1.02406 36292 ft 421 kts 327°
2026-04-21 18:28 52.44477 -1.04923 35571 ft 421 kts 327°
2026-04-21 18:28 52.46943 -1.07395 34969 ft 418 kts 327°
2026-04-21 18:28 52.49061 -1.09522 34460 ft 414 kts 327°
2026-04-21 18:28 52.51495 -1.11969 33814 ft 411 kts 327°
2026-04-21 18:29 52.53923 -1.14413 33100 ft 408 kts 326°
2026-04-21 18:29 52.56327 -1.16835 32332 ft 407 kts 326°
2026-04-21 18:29 52.58746 -1.19275 31574 ft 406 kts 326°
2026-04-21 18:29 52.61129 -1.21681 31041 ft 399 kts 326°
2026-04-21 18:30 52.63485 -1.24064 30547 ft 393 kts 326°
2026-04-21 18:30 52.65770 -1.26377 30063 ft 386 kts 326°
2026-04-21 18:30 52.68020 -1.28656 29558 ft 380 kts 326°
2026-04-21 18:30 52.70275 -1.30947 28911 ft 377 kts 326°
2026-04-21 18:31 52.72488 -1.33197 28253 ft 376 kts 326°
2026-04-21 18:31 52.74719 -1.35470 27765 ft 375 kts 326°
2026-04-21 18:31 52.76920 -1.37715 27129 ft 375 kts 326°
2026-04-21 18:31 52.79150 -1.39991 26505 ft 375 kts 327°
2026-04-21 18:32 52.81347 -1.42237 25894 ft 375 kts 327°
2026-04-21 18:32 52.83575 -1.44517 25290 ft 376 kts 327°
2026-04-21 18:32 52.85783 -1.46781 24696 ft 377 kts 327°
2026-04-21 18:32 52.88028 -1.49084 24142 ft 377 kts 327°
2026-04-21 18:33 52.90236 -1.51352 23575 ft 377 kts 327°
2026-04-21 18:33 52.92454 -1.53633 23019 ft 375 kts 328°
2026-04-21 18:33 52.94634 -1.55879 22512 ft 372 kts 328°
2026-04-21 18:33 52.96833 -1.58146 21929 ft 372 kts 328°
2026-04-21 18:34 52.98296 -1.59656 21550 ft 373 kts 328°
2026-04-21 18:34 53.01215 -1.62673 20802 ft 373 kts 329°
2026-04-21 18:34 53.02687 -1.64196 20441 ft 374 kts 329°
2026-04-21 18:34 53.05643 -1.67178 19749 ft 373 kts 334°
2026-04-21 18:35 53.07219 -1.68287 19426 ft 371 kts 343°
2026-04-21 18:35 53.09671 -1.69623 18908 ft 372 kts 342°
2026-04-21 18:35 53.12120 -1.71142 18405 ft 372 kts 342°
2026-04-21 18:35 53.14505 -1.72628 17951 ft 370 kts 342°
2026-04-21 18:36 53.16896 -1.74111 17472 ft 368 kts 342°
2026-04-21 18:36 53.19264 -1.75580 17054 ft 365 kts 342°
2026-04-21 18:36 53.21641 -1.77060 16610 ft 363 kts 342°
2026-04-21 18:36 53.23987 -1.78521 16183 ft 361 kts 342°
2026-04-21 18:37 53.26306 -1.79968 15767 ft 359 kts 342°
2026-04-21 18:37 53.28655 -1.81435 15330 ft 357 kts 342°
2026-04-21 18:37 53.30958 -1.82874 14913 ft 355 kts 342°
2026-04-21 18:37 53.33261 -1.84315 14522 ft 352 kts 342°
2026-04-21 18:38 53.35544 -1.85745 14131 ft 350 kts 342°
2026-04-21 18:38 53.37812 -1.87169 13660 ft 349 kts 342°
2026-04-21 18:38 53.40068 -1.88587 13074 ft 342 kts 342°
2026-04-21 18:38 53.42258 -1.89965 12630 ft 334 kts 343°
2026-04-21 18:39 53.44420 -1.91327 12246 ft 324 kts 343°
2026-04-21 18:39 53.46482 -1.92626 11880 ft 315 kts 343°
2026-04-21 18:39 53.48527 -1.93916 11291 ft 312 kts 343°
2026-04-21 18:39 53.50555 -1.95193 10736 ft 308 kts 344°
2026-04-21 18:40 53.52624 -1.95926 10078 ft 298 kts
2026-04-21 18:40 53.54606 -1.95215 9326 ft 292 kts 21°
2026-04-21 18:40 53.55917 -1.94598 8835 ft 294 kts 17°
2026-04-21 18:40 53.58556 -1.93697 8159 ft 287 kts 16°
2026-04-21 18:41 53.60498 -1.93023 7671 ft 282 kts 17°
2026-04-21 18:41 53.62394 -1.92353 7199 ft 278 kts 17°
2026-04-21 18:41 53.64252 -1.91689 6810 ft 270 kts 17°
2026-04-21 18:41 53.66062 -1.91038 6504 ft 260 kts 18°
2026-04-21 18:42 53.67831 -1.90396 6193 ft 256 kts 18°
2026-04-21 18:42 53.69522 -1.89782 5889 ft 248 kts 18°
2026-04-21 18:42 53.71215 -1.89166 5483 ft 245 kts 18°
2026-04-21 18:42 53.72838 -1.88577 5132 ft 237 kts 19°
2026-04-21 18:43 53.74410 -1.88009 4763 ft 224 kts 19°
2026-04-21 18:43 53.75909 -1.87471 4466 ft 213 kts 19°
2026-04-21 18:43 53.77303 -1.86960 4450 ft 196 kts 20°
2026-04-21 18:43 53.78627 -1.86473 4213 ft 198 kts 20°
2026-04-21 18:44 53.79975 -1.85979 3828 ft 199 kts 20°
2026-04-21 18:44 53.81321 -1.85487 3509 ft 197 kts 20°
2026-04-21 18:44 53.82629 -1.85010 3238 ft 191 kts 20°
2026-04-21 18:44 53.83924 -1.84536 3034 ft 190 kts 20°
2026-04-21 18:45 53.85222 -1.84059 2854 ft 188 kts 20°
2026-04-21 18:45 53.86447 -1.83610 2708 ft 175 kts 21°
2026-04-21 18:45 53.87630 -1.83177 2608 ft 171 kts 20°
2026-04-21 18:45 53.88767 -1.82758 2555 ft 171 kts 20°
2026-04-21 18:46 53.89940 -1.82326 2508 ft 171 kts 20°
2026-04-21 18:46 53.91099 -1.81900 2436 ft 171 kts 20°
2026-04-21 18:46 53.92259 -1.81456 2402 ft 169 kts 24°
2026-04-21 18:46 53.93157 -1.80392 2373 ft 155 kts 60°
2026-04-21 18:47 53.93368 -1.78750 2344 ft 140 kts 98°
2026-04-21 18:47 53.92958 -1.77257 2345 ft 142 kts 114°
2026-04-21 18:47 53.92479 -1.75774 2304 ft 143 kts 114°
2026-04-21 18:47 53.91898 -1.74375 2171 ft 143 kts 123°
2026-04-21 18:48 53.91238 -1.73252 2007 ft 127 kts 128°
2026-04-21 18:48 53.90603 -1.72262 1841 ft 121 kts 129°
2026-04-21 18:48 53.90000 -1.71328 1631 ft 118 kts 129°
2026-04-21 18:48 53.89386 -1.70377 1429 ft 120 kts 129°
2026-04-21 18:49 53.88773 -1.69428 1236 ft 120 kts 129°
2026-04-21 18:49 53.88152 -1.68442 1027 ft 122 kts 132°
2026-04-21 18:49 53.87737 -1.67787 902 ft 123 kts 135°
2026-04-21 18:49 53.86883 -1.66500 683 ft 119 kts 137°
2026-04-21 18:50 53.86482 -1.65883 676 ft 57 kts 137°
2026-04-21 18:50 53.86272 -1.65563 678 ft 15 kts 137°
2026-04-21 18:50 53.86270 -1.65465 678 ft 10 kts 19°
2026-04-21 18:50 53.86342 -1.65456 678 ft 11 kts
2026-04-21 18:51 53.86425 -1.65447 678 ft 14 kts
2026-04-21 18:51 53.86538 -1.65437 672 ft 18 kts
2026-04-21 18:51 53.86611 -1.65432 669 ft 8 kts
2026-04-21 18:51 53.86677 -1.65427 666 ft 7 kts
2026-04-21 18:52 53.86743 -1.65417 664 ft 12 kts
2026-04-21 18:52 53.86819 -1.65413 662 ft 6 kts
2026-04-21 18:52 53.86861 -1.65413 661 ft 6 kts 359°
2026-04-21 18:52 53.86865 -1.65413 661 ft 0 kts 359°